This demonstration page uses our WeatherBlox Daily Observations layout. Learn more.

Left ArrowRight Arrow

39.92423, -83.80882

Hourly Observations for February 25, 2021

Temp ( °F °C ) Dew Point ( °F °C ) Humidity (%) Winds ( mph kmh ) Pressure ( in mb ) Visibility ( mi km ) Precip ( " mm )
12:04 am 00:04 Partly Cloudy 34 1 30 -1 87 87 NNW 9 15 30.22 1023 10 16.0934 0 0
12:56 am 00:56 Clear 33 0.6 30 -1.1 89 89 NNW 8 13 30.21 1023 10 16.0934 0 0
1:56 am 01:56 Clear 30 -1.1 29 -1.7 96 96 NNW 6 9 30.23 1024 10 16.0934 0 0
2:56 am 02:56 Clear 30 -1.1 29 -1.7 96 96 NW 5 7 30.23 1024 10 16.0934 0 0
3:56 am 03:56 Clear 28 -2.2 28 -2.2 100 100 NW 7 11 30.25 1024 10 16.0934 0 0
4:56 am 04:56 Clear 27 -2.8 27 -2.8 100 100 NW 6 9 30.27 1025 10 16.0934 0 0
5:56 am 05:56 Clear 27 -2.8 27 -2.8 100 100 Calm 30.29 1026 10 16.0934 0 0
6:56 am 06:56 Clear 25 -3.9 25 -3.9 100 100 NNW 3 6 30.3 1026 10 16.0934 0 0
7:56 am 07:56 Sunny with Mist and Fog 26 -3.3 26 -3.3 100 100 Calm 30.32 1027 6 9.65604 0 0
8:56 am 08:56 Sunny 31 -0.6 30 -1.1 96 96 NNW 5 7 30.36 1028 10 16.0934 0 0
9:56 am 09:56 Sunny 34 1.1 29 -1.7 82 82 NW 8 13 30.37 1029 10 16.0934 0 0
10:56 am 10:56 Mostly Sunny 37 2.8 28 -2.2 70 70 NNW 9 15 30.39 1029 10 16.0934 0 0
11:56 am 11:56 Sunny 38 3.3 24 -4.4 57 57 WNW 6 9 30.38 1029 10 16.0934 0 0
12:56 pm 12:56 Sunny 40 4.4 26 -3.3 58 58 NNW 8 13 30.37 1028 10 16.0934 0 0
1:56 pm 13:56 Sunny 41 5 25 -3.9 53 53 WNW 10 17 30.34 1028 10 16.0934 0 0
2:56 pm 14:56 Sunny 40 4.4 27 -2.8 60 60 NW 7 11 30.35 1028 10 16.0934 0 0
3:56 pm 15:56 Sunny 41 5 27 -2.8 57 57 NNW 12 19 30.34 1028 10 16.0934 0 0
4:56 pm 16:56 Sunny 39 3.9 28 -2.2 65 65 N 10 17 30.35 1028 10 16.0934 0 0
5:56 pm 17:56 Partly Cloudy 37 2.8 28 -2.2 70 70 N 6 9 30.35 1028 10 16.0934 0 0
6:56 pm 18:56 Clear 34 1.1 27 -2.8 76 76 Calm 30.37 1028 10 16.0934 0 0
7:56 pm 19:56 Clear 32 0 28 -2.2 85 85 SW 3 6 30.38 1029 10 16.0934 0 0
8:56 pm 20:56 Clear 33 0.6 28 -2.2 82 82 WSW 3 6 30.38 1029 10 16.0934 0 0
9:56 pm 21:56 Clear 32 0 29 -1.7 88 88 WNW 3 6 30.38 1029 10 16.0934 0 0
10:56 pm 22:56 Mostly Clear 32 0 28 -2.2 85 85 Calm 30.38 1029 10 16.0934 0 0
11:56 pm 23:56 Clear 33 0.6 27 -2.8 78 78 NNW 3 6 30.37 1028 10 16.0934 0 0

Powered by AerisWeather